Regional Weather Roundup
Issued by NWS Cleveland, OH

Home | Current Version | Previous Version | Graphics & Text | Print | Product List | Glossary On
Versions: 1 2 3 4 5 6 7 8 9 10 11 12 13 14 15 16 17 18 19 20 21 22 23 24 25 26 27 28 29 30 31 32 33 34 35 36 37 38 39 40 41 42 43 44 45 46 47 48 49 50
000
ASUS41 KCLE 021110
RWRCLE
OHIO REGIONAL WEATHER ROUNDUP
NATIONAL WEATHER SERVICE CLEVELAND, OH
700 AM EDT THU JUL 02 2015

NOTE: "FAIR" INDICATES FEW OR NO CLOUDS BELOW 12,000 FEET WITH NO
SIGNIFICANT WEATHER AND/OR OBSTRUCTIONS TO VISIBILITY.

OHZ001>008-015>018-024>027-034-035-043-044-021200-
   NORTHWEST OHIO

CITY           SKY/WX    TMP DP  RH WIND       PRES   REMARKS
DEFIANCE       MOCLDY    61  58  90 NE5       29.95R
FINDLAY        CLOUDY    64  60  87 E10       29.93R
TOLEDO EXPRESS PTCLDY    59  57  93 NE7       29.95R
TOLEDO EXEC    MOCLDY    63  58  83 NE8       29.96S
LIMA           CLOUDY    62  60  93 E6        29.93R FOG
$$

OHZ009>014-019>023-028>033-038-089-021200-
   NORTHEAST OHIO

CITY           SKY/WX    TMP DP  RH WIND       PRES   REMARKS
CLE-HOPKINS    MOCLDY    64  60  87 N5        29.97S
CLE-LAKEFRONT  MOCLDY    65  60  84 NE9       29.95R
CUY CO. ARPT   MOCLDY    61  59  94 E7        29.97
LORAIN-ELYRIA  CLOUDY    62  59  90 NE6       29.96S
ASHTABULA      CLOUDY    59  58  96 MISG      29.97R FOG
AKRON-CANTON   MOCLDY    61  58  90 NE6       29.95R FOG
WOOSTER        PTCLDY    60  59  96 NE6       29.95S FOG
MANSFIELD      FOG       60  60 100 NE7       29.95S VSB 1/4
YOUNGSTOWN     PTSUNNY   59  57  93 CALM      29.95R
$$

OHZ042-051>053-060>062-070>072-077>081-021200-
  SOUTHWEST OHIO

CITY           SKY/WX    TMP DP  RH WIND       PRES   REMARKS
CINC-COVINGTON CLOUDY    70  67  90 CALM      29.89S FOG
CINC-LUNKEN    CLOUDY    67  66  97 CALM      29.89S FOG
HAMILTON       CLOUDY    67  62  84 CALM      29.90S
DAYTON         CLOUDY    66  60  81 NE3       29.92S
WRIGHT-PAT AFB CLOUDY    65  60  85 N3        29.91S
DAYTON GENERAL CLOUDY    65  61  87 NE7       29.90S
WILMINGTON     CLOUDY    64  60  87 E3        29.91R FOG
$$

OHZ036-037-039>041-045>050-054>059-063>069-073>076-082>088-021200-
  CENTRAL AND SOUTHEAST OHIO

CITY           SKY/WX    TMP DP  RH WIND       PRES   REMARKS
COLUMBUS       CLOUDY    63  59  87 CALM      29.92R
OSU AIRPORT    MOCLDY    63  60  90 CALM      29.92R
BOLTON FIELD   NOT AVBL
RICKENBACK AFB NOT AVBL
NEWARK         MOCLDY    60  58  92 CALM      29.93R
MARION         CLOUDY    61  58  90 NE6       29.94R FOG
LANCASTER      FOG       59  57  93 CALM      29.93R VSB 3/4
ZANESVILLE     NOT AVBL
NEW PHILLY     MOCLDY    58  57  97 CALM      29.95S FOG
$$



USA.gov is the U.S. government's official web portal to all federal, state and local government web resources and services.